TimePDT,TemperatureF,Dew PointF,Humidity,Sea Level PressureIn,VisibilityMPH,Wind Direction,Wind SpeedMPH,Gust SpeedMPH,PrecipitationIn,Events,Conditions,WindDirDegrees,DateUTC
12:52 AM,57.9,43.0,58,30.13,10.0,North,5.8,-,N/A,,Overcast,350,2013-05-19 07:52:00
1:52 AM,57.0,37.0,47,30.13,10.0,NW,6.9,-,N/A,,Overcast,320,2013-05-19 08:52:00
2:52 AM,55.9,36.0,47,30.15,10.0,NW,4.6,-,N/A,,Overcast,320,2013-05-19 09:52:00
3:52 AM,53.1,36.0,52,30.17,10.0,NNW,4.6,-,N/A,,Overcast,330,2013-05-19 10:52:00
4:52 AM,53.1,36.0,52,30.19,10.0,NW,3.5,-,N/A,,Overcast,310,2013-05-19 11:52:00
5:52 AM,53.1,35.1,50,30.20,10.0,WNW,4.6,-,N/A,,Mostly Cloudy,290,2013-05-19 12:52:00
6:52 AM,54.0,36.0,51,30.21,10.0,WNW,8.1,-,N/A,,Partly Cloudy,290,2013-05-19 13:52:00
7:52 AM,61.0,36.0,39,30.23,10.0,West,9.2,-,N/A,,Mostly Cloudy,280,2013-05-19 14:52:00
8:52 AM,64.0,35.1,34,30.24,10.0,NW,9.2,-,N/A,,Clear,320,2013-05-19 15:52:00
9:52 AM,66.0,36.0,33,30.23,10.0,NW,8.1,16.1,N/A,,Mostly Cloudy,310,2013-05-19 16:52:00
10:52 AM,68.0,35.1,30,30.23,10.0,Variable,6.9,-,N/A,,Clear,0,2013-05-19 17:52:00
11:52 AM,71.1,35.1,27,30.22,10.0,NW,6.9,-,N/A,,Clear,320,2013-05-19 18:52:00
12:52 PM,72.0,34.0,25,30.21,10.0,SW,8.1,-,N/A,,Clear,220,2013-05-19 19:52:00
1:52 PM,73.4,35.6,25,30.21,10.0,WSW,8.1,16.1,N/A,,Partly Cloudy,250,2013-05-19 20:52:00
2:52 PM,75.0,36.0,24,30.20,10.0,SW,13.8,19.6,N/A,,Partly Cloudy,230,2013-05-19 21:52:00
3:52 PM,72.0,36.0,27,30.20,10.0,Calm,Calm,-,N/A,,Partly Cloudy,0,2013-05-19 22:52:00
4:52 PM,75.0,36.0,24,30.19,10.0,SSW,8.1,-,N/A,,Clear,200,2013-05-19 23:52:00
5:52 PM,75.0,35.1,23,30.18,10.0,SW,8.1,-,N/A,,Clear,230,2013-05-20 00:52:00
6:52 PM,73.0,35.1,25,30.18,10.0,SW,10.4,-,N/A,,Clear,220,2013-05-20 01:52:00
7:52 PM,70.0,39.0,32,30.19,10.0,WSW,15.0,-,N/A,,Clear,250,2013-05-20 02:52:00
8:52 PM,64.9,42.1,43,30.20,10.0,SW,6.9,-,N/A,,Clear,230,2013-05-20 03:52:00
9:52 PM,62.1,39.9,44,30.21,10.0,WNW,6.9,-,N/A,,Clear,300,2013-05-20 04:52:00
10:52 PM,57.9,37.0,46,30.22,10.0,Calm,Calm,-,N/A,,Clear,0,2013-05-20 05:52:00
11:52 PM,57.9,42.1,56,30.22,10.0,SSW,3.5,-,N/A,,Clear,210,2013-05-20 06:52:00